Location: Newark
(34.6283°N, 36.0776°E)
Time: 13:42:41
(UTC+00:00)

A-11 Canister half - Pass Details

Date: 19 September 2019
Orbit: 1527 x 1682 km, 47.3° (Epoch: 14 October)

Event Time Altitude Azimuth Distance (km) Brightness Sun altitude
Rises 00:35:41 0° 216° (SW) 4,665 - -33.4°
Reaches altitude 10° 00:38:45 10° 212° (SSW) 3,690 - -32.8°
Exits shadow 00:45:21 47° 184° (S) 1,957 9.2 -31.6°
Maximum altitude 00:47:49 59° 136° (SE) 1,749 9.2 -31.2°
Drops below altitude 10° 00:57:07 10° 60° (ENE) 3,789 12.0 -29.5°
Sets 01:00:18 0° 57° (ENE) 4,797 12.8 -28.9°
